Starlink 6096

operational
NORAD ID: 56103 Int'l Des: 2023-046 Owner: SPXS Country: US Constellation: starlink
LEOCIRCULAR

Über Starlink 6096

Beschreibung wird geladen...

Live-Position

3D-Globus wird geladen...

Nächste Überflüge

Höhenverlauf

Altitude vs Time

uPlot chart will show altitude changes over time

Zweizeiliger Elementsatz

1 56103U 23046L 25351.13686219 .00001507 00000-0 12660-3 0 9993
2 56103 43.0041 247.5418 0001237 266.3295 93.7406 15.02537086149646
Epoch: 17. Dez. 2025 • Age: 14 hours

Aktueller Status

Höhe 569.2 km
Geschwindigkeit 7.58 km/s
Subsatellitenpunkt -37.04°S, 156.39°W
Startdatum 29. März 2023
Alter 2.7 years
Typ internet

Technische Details

Klassifizierung Payload
Masse 305.00 kg
Trockenmasse 290.00 kg
Gesamtmasse 305.00 kg
Länge 0.20 m
Durchmesser 2.80 m
Spannweite 9.00 m
Form Box + pan
Hersteller SPXS
Bus-Typ Starlink
Phasenstatus In Orbit
Besitzer/Staat SPXS/US

Große Konstellationen

Loading constellations...